THOR ABLESTAR DEB, 461

Orbit data source: Space-Track

THOR ABLESTAR DEB, 461 is space debris in LEO originally from a launch on Thu, 29 Jun 1961 UTC launched from the Air Force Eastern Test Range (AFETR). Debris objects in space refer to the collection of defunct objects orbiting the Earth. Examples of debris include non-operational satellites, rocket bodies, and fragments generated from explosions, collisions, or faulty payload assembly.

Loading next visibility...
Identifier
461, 1961-015EX
Orbit
LEO
Country
Flag of USUS
Related business
Manufacturer
Unknown
Mission
Spacecraft
Bus & Motor
Unknown
Mass
Unknown
Launch date (UTC)
1961-06-29 (65 years ago)
Launch vehicle
Unknown
Launch site
Air Force Eastern Test Range (AFETR)
Object type
Payload
Rocket body
Debris
Shape & HBR
Unknown shape, 0.1 m
Radar Cross Section
Medium (>0.1 m² and <1 m²)

Expand to show TLE details & history
Last TLE update: 7 hours ago

TLE from 7 hours ago
0 THOR ABLESTAR DEB
1   461U 61015EX  26071.81625618  .00030220  00000-0  21485-2 0  9996
2   461  67.4956   4.5564 0019068  28.9482 331.2713 15.04418097371292
Epoch: 2026-03-12T19:35Z
TLE epoch observation values (Epoch: 2026-03-12T19:35:24.533Z)
Latitude
-0.00012°
Longitude
-99.75659°
Altitude
543.95 km
Speed
7.597 km/s
True Right ascension
00h 18m 13s
True Declination
0° 00' 00"
Sunlit
Object was in daylight at epoch
Visualization orbit readout
Latitude
Unknown
Longitude
Unknown
Altitude
Unknown
Speed
Unknown
Apparent Right ascension
Unknown
Apparent Declination
Unknown
Sunlit
N/A
Visualization observer readout
Local Sidereal Time
06:53:43
Azimuth
Unknown
Elevation
Unknown
Doppler factor
Unknown
Orbital elements
Apogee altitude
564.73 km
Perigee altitude
538.303 km
Semi-major axis
6,929.653 km
Eccentricity
0.00191
Inclination
67.4956°
RAAN
4.5564°
Arg. of periapsis
28.9482°
True anomaly
331.16605°
Mean anomaly
331.2713°
Eccentric anomaly
331.2187°
Mean motion
3.76249 °/min
Orbital period
95.68 mins
BSTAR
0.0021485
Loading maneuver chart data...
Computing Atmospheric mass density...

Documentation

Showing up to 5 results
|